TimeCST,TemperatureF,Dew PointF,Humidity,Sea Level PressureIn,VisibilityMPH,Wind Direction,Wind SpeedMPH,Gust SpeedMPH,PrecipitationIn,Events,Conditions,WindDirDegrees,DateUTC
12:52 AM,60.1,55.0,83,30.02,10.0,South,16.1,24.2,0.03,Rain,Light Rain,170,2012-11-12 06:52:00
1:52 AM,60.1,55.0,83,30.01,10.0,South,15.0,25.3,0.02,,Overcast,170,2012-11-12 07:52:00
2:35 AM,59.0,55.4,88,30.07,2.5,SW,11.5,23.0,0.10,Rain,Heavy Rain,220,2012-11-12 08:35:00
2:48 AM,59.0,55.4,88,30.06,3.0,SW,6.9,-,0.14,Rain,Rain,220,2012-11-12 08:48:00
2:52 AM,57.9,55.9,93,30.05,3.0,SW,6.9,-,0.16,Rain,Rain,220,2012-11-12 08:52:00
3:36 AM,57.2,55.4,94,30.08,2.5,WSW,4.6,-,0.08,Rain,Rain,240,2012-11-12 09:36:00
3:50 AM,57.2,57.2,100,30.08,2.0,West,3.5,-,0.15,Rain,Heavy Rain,280,2012-11-12 09:50:00
3:52 AM,57.9,57.0,97,30.08,1.8,WNW,8.1,-,0.17,Rain,Heavy Rain,300,2012-11-12 09:52:00
4:01 AM,53.6,51.8,94,30.09,2.0,NW,11.5,-,0.05,Rain,Rain,310,2012-11-12 10:01:00
4:12 AM,53.6,51.8,94,30.10,4.0,NW,10.4,-,0.06,Rain,Light Rain,310,2012-11-12 10:12:00
4:52 AM,53.1,51.1,93,30.09,7.0,NNW,10.4,-,0.12,Rain,Light Rain,330,2012-11-12 10:52:00
5:07 AM,53.6,51.8,94,30.09,10.0,WNW,3.5,-,0.00,,Overcast,300,2012-11-12 11:07:00
6:27 AM,51.8,50.0,94,30.15,9.0,West,8.1,-,0.05,Rain,Light Rain,280,2012-11-12 12:27:00
6:52 AM,52.0,50.0,93,30.15,5.0,WNW,9.2,-,0.09,Rain,Light Rain,300,2012-11-12 12:52:00
7:08 AM,51.8,50.0,94,30.17,7.0,WNW,9.2,-,0.01,Rain,Light Rain,300,2012-11-12 13:08:00
7:33 AM,46.4,44.6,93,30.19,9.0,NW,16.1,-,0.04,Rain,Light Rain,310,2012-11-12 13:33:00
7:52 AM,46.0,44.1,93,30.21,10.0,NW,18.4,-,0.04,Rain,Light Rain,320,2012-11-12 13:52:00
7:59 AM,46.4,42.8,87,30.22,10.0,NW,17.3,27.6,0.00,Rain,Light Rain,320,2012-11-12 13:59:00
8:10 AM,44.6,42.8,93,30.22,6.0,NW,17.3,27.6,0.02,Rain,Light Rain,320,2012-11-12 14:10:00
8:52 AM,43.0,39.9,89,30.26,8.0,NW,16.1,26.5,0.05,Rain,Light Rain,320,2012-11-12 14:52:00
9:05 AM,42.8,39.2,87,30.27,8.0,NNW,20.7,25.3,0.01,Rain,Light Rain,330,2012-11-12 15:05:00
9:20 AM,42.8,39.2,87,30.27,10.0,NW,17.3,24.2,0.01,,Overcast,320,2012-11-12 15:20:00
9:35 AM,42.8,39.2,87,30.26,10.0,NNW,18.4,24.2,0.01,,Overcast,340,2012-11-12 15:35:00
9:52 AM,42.1,39.0,89,30.28,10.0,NW,19.6,26.5,0.01,,Overcast,320,2012-11-12 15:52:00
10:12 AM,42.8,39.2,87,30.29,8.0,NW,17.3,24.2,N/A,,Overcast,310,2012-11-12 16:12:00
10:52 AM,42.1,37.9,85,30.32,10.0,WNW,15.0,21.9,0.00,Rain,Light Rain,300,2012-11-12 16:52:00
11:11 AM,42.8,35.6,76,30.32,10.0,NW,19.6,23.0,0.00,,Overcast,310,2012-11-12 17:11:00
11:20 AM,42.8,35.6,76,30.32,10.0,NW,15.0,-,0.00,,Overcast,320,2012-11-12 17:20:00
11:52 AM,44.1,34.0,68,30.33,10.0,NW,12.7,23.0,0.00,,Partly Cloudy,310,2012-11-12 17:52:00
12:52 PM,46.0,34.0,63,30.34,10.0,NW,12.7,-,N/A,,Partly Cloudy,320,2012-11-12 18:52:00
1:52 PM,46.9,34.0,61,30.34,10.0,WNW,13.8,21.9,N/A,,Scattered Clouds,300,2012-11-12 19:52:00
2:52 PM,46.9,28.9,50,30.35,10.0,NW,8.1,-,N/A,,Clear,310,2012-11-12 20:52:00
3:52 PM,45.0,25.0,46,30.36,10.0,NNW,10.4,-,N/A,,Clear,330,2012-11-12 21:52:00
4:52 PM,41.0,25.0,53,30.38,10.0,NNW,5.8,-,N/A,,Clear,330,2012-11-12 22:52:00
5:52 PM,41.0,23.0,49,30.40,10.0,Calm,Calm,-,N/A,,Clear,0,2012-11-12 23:52:00
6:52 PM,39.0,25.0,57,30.42,10.0,Calm,Calm,-,N/A,,Clear,0,2012-11-13 00:52:00
7:52 PM,35.1,28.0,76,30.44,10.0,Calm,Calm,-,N/A,,Clear,0,2012-11-13 01:52:00
8:52 PM,32.0,28.0,85,30.45,10.0,West,3.5,-,N/A,,Clear,270,2012-11-13 02:52:00
9:52 PM,30.0,27.0,88,30.47,10.0,Calm,Calm,-,N/A,,Clear,0,2012-11-13 03:52:00
10:52 PM,30.9,28.0,89,30.47,10.0,Calm,Calm,-,N/A,,Clear,0,2012-11-13 04:52:00
11:52 PM,30.0,27.0,88,30.46,10.0,Calm,Calm,-,N/A,,Clear,0,2012-11-13 05:52:00